Regional Weather Roundup
Issued by NWS

Home | Current Version | Previous Version | Text Only | Print | Product List | Glossary Off
Versions: 1 2 3 4 5 6 7 8 9 10 11 12 13 14 15 16 17 18 19 20 21 22 23 24 25 26 27 28 29 30 31 32 33 34 35 36 37 38 39 40 41 42 43 44 45 46 47 48 49 50

000
ASUS45 KCYS 292210
RWRWY

WYOMING REGIONAL WEATHER ROUNDUP
NATIONAL WEATHER SERVICE CHEYENNE WY
400 PM MDT SUN MAR 29 2015

NOTE:  "FAIR" INDICATES FEW OR NO CLOUDS BELOW 12,000 FEET
WITH NO SIGNIFICANT WEATHER AND/OR OBSTRUCTIONS TO VISIBILITY.

WYZ001-292300-
YELLOWSTONE NATIONAL PARK

CITY           SKY/WX    TMP DP  RH WIND       PRES   REMARKS
LK YELLOWSTONE   N/A     45  12  26 VRB6G17   30.27F
W YELLOWSTONE  NOT AVBL

$$
WYZ002>013-054>058-071-098>099-292300-
NORTHERN WYOMING

CITY           SKY/WX    TMP DP  RH WIND       PRES   REMARKS
JACKSON        NOT AVBL
CODY           FAIR      63  16  16 N8G29     30.11F
GREYBULL       FAIR      62  17  17 S8        30.10F
WORLAND        FAIR      63  16  16 N8        30.10F
SHERIDAN       FAIR      61  25  25 N12       30.11F
BUFFALO        FAIR      57  24  28 N8        30.12S
GILLETTE       FAIR      61  24  24 N5        30.08F
HULETT         FAIR      57  27  30 W7        30.12F
NEWCASTLE      FAIR      59  19  21 NW5G21    30.12F

$$
WYZ014>020-022>026-101>103-292300-
CENTRAL WYOMING

CITY           SKY/WX    TMP DP  RH WIND       PRES   REMARKS
BIG PINEY      FAIR      58   9  14 SW7       30.24F
PINEDALE       FAIR      52   9  17 N7        30.27S
DUBOIS         FAIR      54   5  14 NW25      30.20S
LANDER         FAIR      63  17  17 NE9       30.11F
RIVERTON       FAIR      63  11  13 S9        30.11F
CASPER         FAIR      64  10  12 W14G24    30.11F
DOUGLAS        FAIR      62  21  20 SW5       30.11F

$$
WYZ021-027>030-104>119-292300-
SOUTHERN WYOMING

CITY           SKY/WX    TMP DP  RH WIND       PRES   REMARKS
EVANSTON       FAIR      60  14  16 SW16G23   30.27F
KEMMERER       FAIR      55  10  16 W16G22    30.28S
FORT BRIDGER   FAIR      64  10  12 W9G24     30.28F
ROCK SPRINGS   FAIR      60   8  12 SW17G24   30.23F
DIXON          FAIR      62  13  14 SW14G20   30.25F
RAWLINS        FAIR      61  10  13 W21G29    30.20F
SARATOGA       FAIR      59  10  14 W20G30    30.23S
LARAMIE        FAIR      60   6  11 W8        30.18F
CHEYENNE       FAIR      60  18  19 SW15      30.16F
TORRINGTON     FAIR      62  32  32 CALM      30.11F
PINE BLUFFS    FAIR      61  21  21 S3        30.17F

$$


USA.gov is the U.S. government's official web portal to all federal, state and local government web resources and services.